Location: Contre
(49.7477°N, 2.0963°E)
Time: 23:38:36
(UTC+00:00)

RESURS DK-1 - Pass Details

Date: 03 February 2023
Orbit: 548 x 558 km, 69.9° (Epoch: 01 April)

Event Time Altitude Azimuth Distance (km) Brightness Sun altitude
Rises 18:12:14 0° 330° (NNW) 2,739 6.2 -13.6°
Reaches altitude 10° 18:14:27 10° 333° (NNW) 1,842 5.2 -13.9°
Maximum altitude 18:18:33 68° 57° (ENE) 600 2.2 -14.6°
Drops below altitude 10° 18:22:38 10° 141° (SE) 1,836 4.7 -15.2°
Enters shadow 18:23:04 - 142° (SE) 2,006 4.9 -15.3°
